TimeCET,TemperatureF,Dew PointF,Humidity,Sea Level PressureIn,VisibilityMPH,Wind Direction,Wind SpeedMPH,Gust SpeedMPH,PrecipitationIn,Events,Conditions,WindDirDegrees,DateUTC
12:20 AM,50.0,39.2,66,30.33,-9999.0,NNE,6.9,-,N/A,,Clear,30,2011-11-13 23:20:00
12:50 AM,48.2,39.2,71,30.33,-9999.0,NNE,5.8,-,N/A,,Clear,30,2011-11-13 23:50:00
1:00 AM,49,39,58,30.33,12,North,8.1,,,,,10,2011-11-14 00:00:00
1:20 AM,50.0,39.2,66,30.30,-9999.0,North,8.1,-,N/A,,Clear,10,2011-11-14 00:20:00
1:50 AM,-9999,-9999,N/A,-9999,-9999.0,North,8.1,-,N/A,,Unknown,10,2011-11-14 00:50:00
2:20 AM,50.0,39.2,66,30.30,-9999.0,North,6.9,-,N/A,,Clear,360,2011-11-14 01:20:00
2:50 AM,48.2,37.4,66,30.30,-9999.0,North,6.9,-,N/A,,Clear,360,2011-11-14 01:50:00
3:20 AM,48.2,37.4,66,30.30,-9999.0,North,5.8,-,N/A,,Clear,350,2011-11-14 02:20:00
3:50 AM,48.2,37.4,66,30.30,-9999.0,North,5.8,-,N/A,,Clear,360,2011-11-14 02:50:00
4:00 AM,47,38,63,30.30,12,North,5.8,,,,,350,2011-11-14 03:00:00
4:20 AM,48.2,37.4,66,30.27,-9999.0,North,6.9,-,N/A,,Clear,350,2011-11-14 03:20:00
4:50 AM,46.4,37.4,71,30.27,-9999.0,NW,6.9,-,N/A,,Clear,320,2011-11-14 03:50:00
5:20 AM,46.4,37.4,71,30.27,-9999.0,NNW,6.9,-,N/A,,Clear,330,2011-11-14 04:20:00
5:50 AM,46.4,35.6,66,30.27,-9999.0,NNW,6.9,-,N/A,,Clear,340,2011-11-14 04:50:00
6:20 AM,46.4,35.6,66,30.27,-9999.0,NNW,5.8,-,N/A,,Clear,330,2011-11-14 05:20:00
6:50 AM,46.4,35.6,66,30.27,-9999.0,NNE,4.6,-,N/A,,Clear,30,2011-11-14 05:50:00
7:00 AM,45,36,61,30.30,12,ENE,3.5,,,,,60,2011-11-14 06:00:00
7:20 AM,44.6,35.6,71,30.27,-9999.0,North,4.6,-,N/A,,Clear,350,2011-11-14 06:20:00
7:50 AM,48.2,39.2,71,30.27,-9999.0,ENE,3.5,-,N/A,,Clear,70,2011-11-14 06:50:00
8:20 AM,51.8,39.2,62,30.27,-9999.0,NNE,8.1,-,N/A,,Clear,20,2011-11-14 07:20:00
8:50 AM,53.6,39.2,58,30.27,-9999.0,NE,11.5,-,N/A,,Clear,40,2011-11-14 07:50:00
9:20 AM,55.4,39.2,54,30.27,-9999.0,ENE,10.4,-,N/A,,Clear,60,2011-11-14 08:20:00
9:50 AM,55.4,39.2,54,30.27,-9999.0,ENE,9.2,-,N/A,,Clear,60,2011-11-14 08:50:00
10:00 AM,57,40,41,30.29,12,ENE,9.2,,,,,70,2011-11-14 09:00:00
10:20 AM,57.2,39.2,51,30.27,-9999.0,ENE,11.5,-,N/A,,Clear,60,2011-11-14 09:20:00
10:50 AM,57.2,39.2,51,30.27,-9999.0,ENE,10.4,-,N/A,,Clear,70,2011-11-14 09:50:00
11:20 AM,59.0,39.2,48,30.27,-9999.0,ENE,8.1,-,N/A,,Clear,60,2011-11-14 10:20:00
11:50 AM,59.0,39.2,48,30.24,-9999.0,ENE,8.1,-,N/A,,Clear,70,2011-11-14 10:50:00
12:20 PM,59.0,41.0,51,30.21,-9999.0,NE,12.7,-,N/A,,Clear,50,2011-11-14 11:20:00
12:50 PM,60.8,41.0,48,30.21,-9999.0,East,10.4,-,N/A,,Clear,80,2011-11-14 11:50:00
1:00 PM,60,40,36,30.22,12,ENE,10.4,,,,,70,2011-11-14 12:00:00
1:20 PM,60.8,42.8,52,30.21,-9999.0,NE,12.7,-,N/A,,Clear,50,2011-11-14 12:20:00
1:50 PM,60.8,41.0,48,30.21,6.2,ENE,10.4,-,N/A,,Partly Cloudy,60,2011-11-14 12:50:00
2:20 PM,60.8,41.0,48,30.18,6.2,NE,10.4,-,N/A,,Partly Cloudy,50,2011-11-14 13:20:00
2:50 PM,60.8,41.0,48,30.18,6.2,NE,11.5,-,N/A,,Partly Cloudy,50,2011-11-14 13:50:00
3:20 PM,60.8,39.2,45,30.18,6.2,NE,10.4,-,N/A,,Partly Cloudy,50,2011-11-14 14:20:00
3:50 PM,59.0,39.2,48,30.18,6.2,NE,9.2,-,N/A,,Partly Cloudy,50,2011-11-14 14:50:00
4:00 PM,59,38,35,30.18,12,ENE,10.4,,,,,60,2011-11-14 15:00:00
4:20 PM,59.0,37.4,45,30.15,-9999.0,ENE,11.5,-,N/A,,Clear,60,2011-11-14 15:20:00
4:50 PM,57.2,39.2,51,30.18,-9999.0,ENE,12.7,-,N/A,,Clear,60,2011-11-14 15:50:00
5:20 PM,57.2,39.2,51,30.18,-9999.0,NE,13.8,-,N/A,,Clear,50,2011-11-14 16:20:00
5:50 PM,55.4,39.2,54,30.18,-9999.0,ENE,6.9,-,N/A,,Clear,60,2011-11-14 16:50:00
6:20 PM,55.4,39.2,54,30.18,-9999.0,East,4.6,-,N/A,,Clear,80,2011-11-14 17:20:00
6:50 PM,53.6,37.4,54,30.18,-9999.0,ENE,5.8,-,N/A,,Clear,70,2011-11-14 17:50:00
7:20 PM,55.4,37.4,51,30.18,-9999.0,ENE,9.2,-,N/A,,Clear,70,2011-11-14 18:20:00
7:50 PM,53.6,39.2,58,30.18,-9999.0,East,6.9,-,N/A,,Clear,80,2011-11-14 18:50:00
8:20 PM,53.6,39.2,58,30.18,-9999.0,East,3.5,-,N/A,,Clear,80,2011-11-14 19:20:00
8:50 PM,51.8,39.2,62,30.18,-9999.0,NNE,3.5,-,N/A,,Clear,30,2011-11-14 19:50:00
9:20 PM,50.0,39.2,66,30.18,-9999.0,NNE,4.6,-,N/A,,Clear,20,2011-11-14 20:20:00
9:50 PM,50.0,39.2,66,30.18,-9999.0,NNE,6.9,-,N/A,,Clear,20,2011-11-14 20:50:00
10:00 PM,50,39,57,30.19,12,North,5.8,,,,,0,2011-11-14 21:00:00
10:20 PM,50.0,39.2,66,30.18,-9999.0,North,6.9,-,N/A,,Clear,350,2011-11-14 21:20:00
10:50 PM,50.0,41.0,71,30.18,-9999.0,NNW,4.6,-,N/A,,Clear,340,2011-11-14 21:50:00
11:20 PM,50.0,39.2,66,30.15,-9999.0,North,5.8,-,N/A,,Clear,360,2011-11-14 22:20:00
11:50 PM,46.4,37.4,71,30.15,-9999.0,North,5.8,-,N/A,,Clear,10,2011-11-14 22:50:00